Theta_e
319 324 327 329 331 332 332 329 329 331 331 328 329 329 329 329 329 331 335 338 338 337 336 337 337 333 329 329 330 333 334 334 333 333 334 333 331 329
313 317 320 322 325 328 331 330 329 329 330 328 328 328 328 331 331 332 335 338 336 336 335 335 330 329 330 330 330 332 330 330 331 332 332 331 331 333
310 313 316 317 321 324 325 326 327 328 330 328 329 330 330 330 329 328 332 334 335 334 334 330 329 331 330 327 330 331 330 329 329 327 328 328 328 331
310 310 311 315 317 323 325 326 328 329 329 329 329 328 328 328 328 327 326 332 334 334 332 330 332 331 326 326 329 331 331 328 328 328 331 331 329 331
312 310 310 311 316 318 322 325 326 328 329 329 329 328 328 329 327 327 327 328 331 331 330 332 330 328 328 329 330 330 329 328 327 330 332 333 333 332
312 312 312 312 313 317 321 323 325 325 324 325 326 325 325 326 326 326 327 328 331 331 330 328 328 329 329 328 329 329 328 328 329 330 331 332 333 332
312 312 312 310 310 314 317 321 322 323 324 323 323 323 324 324 326 326 327 328 327 326 326 324 322 322 324 327 329 329 328 329 329 330 332 332 332 331
313 311 310 308 309 311 315 316 319 321 321 322 324 323 323 324 325 325 325 321 323 322 318 318 320 320 320 323 323 322 326 329 329 330 331 332 333 332
310 309 309 312 313 314 315 316 316 316 318 319 321 322 324 324 324 323 323 319 317 321 319 313 312 313 313 311 314 317 325 329 330 331 331 331 330 330
308 308 310 311 312 314 315 316 317 316 316 316 318 321 323 324 324 325 322 317 316 315 313 319 318 322 322 322 321 322 327 329 329 331 330 329 328 328
308 308 310 311 311 315 316 317 318 317 317 317 317 321 324 325 325 320 316 314 314 313 314 317 322 324 324 323 324 327 328 328 329 330 329 328 327 325
306 307 310 310 314 313 315 314 315 317 318 318 320 323 324 320 318 314 312 313 314 316 316 320 323 324 326 322 321 322 325 325 327 325 322 323 322 322
308 310 312 314 315 317 316 319 320 319 318 319 321 319 316 316 317 315 312 313 314 316 319 320 323 324 325 323 318 318 318 317 318 319 319 318 320 322
309 311 310 310 315 315 315 318 317 317 317 315 315 315 316 316 316 314 313 314 315 317 319 320 321 322 325 326 321 315 315 315 317 319 319 319 319 322
306 310 309 309 316 316 315 320 318 315 314 315 315 314 316 315 313 314 315 315 316 318 320 321 320 320 322 324 320 315 313 311 311 316 316 316 315 314
307 309 309 312 314 313 315 315 314 314 315 315 314 314 313 314 314 315 316 316 317 319 321 322 323 322 322 324 322 315 313 309 309 310 312 310 310 311
309 310 310 309 309 310 311 314 315 316 315 315 315 314 314 314 315 315 315 318 321 323 323 322 321 322 321 323 323 316 312 306 302 308 308 301 301 305
309 310 311 311 311 312 314 315 315 317 316 316 316 315 314 314 315 315 317 320 322 323 320 318 316 317 317 315 317 311 305 301 301 302 300 296 291 292
310 310 312 313 313 313 314 316 317 318 318 317 316 316 315 315 315 315 319 321 323 322 321 320 320 322 321 315 308 308 305 297 296 294 294 293 291 291
309 310 313 314 314 315 314 317 317 317 317 317 316 316 316 315 315 318 320 321 323 322 322 321 322 322 315 314 305 299 303 300 298 294 292 291 291 292
306 309 314 314 315 317 316 317 317 317 317 316 316 316 315 315 316 319 320 320 321 323 324 322 322 321 314 310 302 298 298 297 297 297 292 291 291 292
304 306 314 314 315 316 315 316 315 316 317 317 315 314 313 314 317 319 320 319 319 320 322 322 318 316 314 309 301 296 293 294 295 293 293 293 294 294
303 305 314 315 316 316 317 317 317 317 316 312 311 312 314 316 316 319 320 320 321 321 320 316 315 315 310 304 298 296 293 293 293 294 294 295 297 296
Wind_Speed
11 14 16 20 23 27 30 27 17 8 8 18 17 22 21 27 34 32 30 32 27 26 26 24 22 21 18 19 19 18 18 20 25 28 30 32 33 32
11 12 14 18 19 23 25 23 26 22 11 22 20 29 30 24 22 25 27 30 34 29 25 22 21 18 20 20 20 20 21 21 22 25 27 29 30 29
13 12 15 16 19 21 23 27 26 26 14 25 26 22 23 23 18 12 12 21 28 25 21 17 19 20 23 23 21 22 21 22 23 22 25 27 28 30
14 14 17 18 18 19 22 26 26 27 24 16 22 28 28 28 27 22 15 16 20 21 18 18 19 22 21 21 21 21 22 21 21 23 22 24 26 26
20 18 19 21 23 23 22 22 23 26 25 21 18 28 31 35 27 22 19 16 15 18 19 20 19 19 20 19 20 19 20 21 21 21 20 20 23 21
27 25 23 23 28 26 23 26 26 24 25 20 20 17 18 22 22 17 20 14 18 20 20 18 17 16 16 17 18 16 17 19 19 19 20 18 19 20
29 27 26 26 32 34 27 25 26 26 24 21 19 20 21 18 15 21 16 16 18 16 15 16 14 16 14 14 14 14 15 15 16 18 14 13 17 17
30 28 28 32 34 36 36 37 31 28 27 25 21 20 22 22 20 16 9 7 3 16 15 14 14 17 17 17 16 15 15 13 13 15 10 12 15 16
30 29 29 26 27 31 34 38 42 45 44 33 29 27 23 25 25 13 18 15 10 12 11 10 13 17 15 18 18 17 16 12 9 6 5 9 15 17
33 30 29 29 30 33 33 36 36 38 40 45 40 36 31 24 22 23 27 17 8 10 11 4 4 7 8 9 11 13 15 12 9 7 9 10 10 11
28 28 30 32 36 39 41 38 38 40 35 38 35 34 31 25 22 23 21 12 4 8 13 6 4 2 1 3 4 6 11 10 12 13 14 14 13 12
32 33 33 34 35 37 40 41 41 42 37 29 34 30 25 21 27 25 18 10 4 4 13 10 6 5 3 2 4 4 6 12 16 16 15 16 16 17
22 24 24 23 29 32 33 23 35 41 39 35 31 26 24 20 20 15 13 14 11 4 7 13 6 5 3 4 4 6 2 11 18 19 18 17 16 18
22 22 21 24 28 22 5 15 29 40 37 31 28 26 23 25 18 13 12 14 13 9 6 11 5 7 4 4 4 7 6 10 16 19 21 20 19 20
27 18 25 26 23 19 8 27 28 29 27 31 23 22 29 22 15 12 12 12 13 12 12 14 15 15 13 7 7 9 14 9 16 22 23 22 21 20
20 18 21 21 17 13 10 21 19 22 25 25 24 25 19 15 14 11 7 5 6 7 9 10 12 15 13 12 12 16 15 8 18 22 25 24 21 21
11 11 14 8 4 11 13 19 26 27 26 27 25 19 15 12 8 5 5 6 3 0 4 7 8 11 13 14 12 22 22 21 24 29 29 28 23 20
7 2 10 7 12 11 14 17 20 22 20 18 17 16 13 10 8 5 5 2 1 2 4 3 12 14 12 13 14 27 19 23 30 28 29 34 26 21
7 8 13 10 13 16 19 23 16 17 15 13 11 11 10 6 3 3 6 3 1 3 4 7 11 2 2 2 6 15 34 22 31 25 19 19 28 24
5 12 8 9 16 20 20 19 15 15 13 11 9 8 5 4 3 4 5 4 2 3 4 7 5 7 7 7 6 12 27 39 34 30 32 31 31 26
12 13 11 12 20 22 18 15 15 17 14 12 9 6 6 5 4 5 5 4 3 4 8 8 5 5 17 24 13 12 16 19 26 40 36 28 21 14
15 15 9 11 21 20 19 18 16 16 13 10 11 9 5 5 4 5 6 5 4 7 10 9 14 18 14 10 16 17 21 19 22 34 19 13 12 10
14 12 7 11 17 21 18 16 12 10 11 12 9 7 5 4 7 7 5 6 5 7 12 15 13 6 15 18 26 21 27 30 30 15 13 9 6 11
Wind_Direction
293 293 289 282 269 257 251 236 225 242 259 269 233 251 268 264 257 268 264 251 252 250 247 248 248 258 257 268 267 269 269 261 260 263 261 263 266 267
297 288 279 277 275 272 255 235 232 240 253 256 256 276 285 282 260 257 261 246 249 252 245 246 251 244 265 270 263 260 259 261 266 269 267 267 268 267
285 285 286 287 282 274 266 255 247 242 248 261 260 256 250 251 252 274 279 255 244 241 239 240 241 259 269 268 263 264 264 268 270 272 276 274 271 265
258 271 280 280 275 274 262 247 243 237 232 244 247 244 239 248 266 263 272 268 245 242 242 235 247 263 263 265 264 267 267 264 271 282 285 271 266 266
241 248 265 275 269 264 258 254 245 238 231 232 239 249 251 253 253 248 250 279 254 250 244 245 257 259 256 257 262 262 262 266 277 290 292 277 257 261
243 247 252 264 271 260 248 242 240 234 231 235 239 248 253 251 248 250 243 271 256 246 251 246 244 246 250 258 255 262 262 272 282 290 289 271 245 241
246 252 257 267 276 269 252 241 235 235 242 241 244 257 254 247 228 229 215 253 241 229 227 229 233 241 247 249 248 253 266 270 286 296 280 249 228 236
247 259 271 279 278 272 265 252 242 238 241 243 248 240 244 234 227 210 184 171 223 226 228 237 242 255 255 255 252 258 267 265 285 299 268 235 228 226
253 262 269 262 263 263 265 260 253 251 247 246 250 249 242 221 216 187 193 187 194 181 207 257 253 263 263 256 253 243 243 255 278 292 210 189 191 186
262 267 265 267 266 257 256 252 248 250 251 248 242 249 243 233 240 238 204 195 179 198 215 205 227 275 267 255 245 240 228 226 232 203 179 182 192 189
270 274 271 270 271 261 250 245 247 245 247 241 240 232 237 233 242 209 173 162 176 212 208 188 198 199 121 216 274 238 229 220 222 203 195 192 187 187
274 270 264 271 268 278 263 259 246 235 223 216 210 215 227 204 194 195 181 171 144 208 213 175 170 171 175 210 14 354 236 216 211 191 174 175 174 162
255 266 267 278 280 294 277 250 242 200 177 174 181 176 173 171 197 191 193 200 176 208 180 183 183 182 187 131 66 40 140 168 165 158 158 162 163 160
264 270 280 297 303 300 269 145 128 135 142 145 145 163 155 197 199 211 217 211 215 219 191 206 226 219 200 153 123 118 147 153 152 147 151 160 167 160
269 262 286 295 294 306 56 118 127 133 153 142 147 160 181 188 186 192 201 219 235 244 243 246 236 236 226 206 146 160 143 152 151 142 146 150 149 151
260 273 287 299 286 261 203 166 168 158 144 143 152 161 161 156 174 179 186 213 240 255 263 248 242 235 226 209 173 158 165 156 152 140 134 130 134 140
247 281 313 287 228 199 172 174 172 156 145 148 146 139 142 154 158 178 204 185 177 280 268 258 268 225 183 198 171 168 165 153 145 134 129 116 113 119
236 280 286 214 187 175 159 162 165 155 145 138 137 141 149 155 162 173 177 150 69 293 207 186 130 124 119 67 161 145 141 147 144 138 129 116 106 110
219 278 263 212 181 175 170 166 163 162 154 148 149 161 154 154 151 160 160 134 43 235 203 192 186 220 101 106 74 159 144 142 129 120 124 125 124 120
321 285 264 210 187 187 184 160 162 163 163 168 165 163 158 146 166 173 173 146 156 195 219 206 216 264 160 156 122 83 155 145 139 126 124 123 121 123
327 309 244 213 193 191 186 159 161 163 162 152 154 162 163 180 199 177 173 192 191 202 224 207 207 199 151 133 106 99 116 143 145 141 138 123 125 136
311 305 219 194 179 171 151 140 140 142 146 158 151 149 181 210 208 194 194 188 213 218 227 199 153 148 140 139 136 125 119 125 141 134 129 133 153 156
300 326 218 186 163 156 150 148 152 156 155 146 146 163 204 228 205 195 203 234 225 226 210 166 158 145 137 141 135 135 133 137 145 137 124 133 138 142